#timestamp,LO_Frequency,Hit,StdDev 
1502539215.1,286046998.0,P,0.6
1502539216.0,286046998.0,Y,0.0
1502539235.8,286046998.5,P,0.0
1502539255.7,286047000.5,P,1.0
1502539275.5,286047000.9,N,1.1
1502539295.3,286047000.0,N,1.0
1502539315.2,286047000.6,N,1.0
1502539335.0,286047001.1,N,1.0
1502539335.9,286047001.1,N,1.0
1502539355.8,286047001.1,N,1.0
1502539375.6,286047000.8,N,1.0
1502539395.4,286046999.0,N,1.0
1502539415.3,286046999.6,N,1.0
1502539435.1,286046996.5,Y,0.0
1502539455.8,286046999.4,P,0.4
1502539475.7,286046998.1,P,0.8
1502539495.5,286047001.1,N,1.1
1502539515.4,286047001.0,N,1.1
1502539535.2,286047002.2,N,1.3
1502539555.0,286047002.3,N,1.4
1502539555.9,286047002.3,N,1.4
1502539575.8,286047002.7,N,1.5
1502539595.6,286047002.8,N,1.5
1502539615.5,286047002.8,N,1.5
1502539635.3,286047002.6,N,1.5
1502539655.1,286047002.7,N,1.5
1502539675.9,286047000.1,N,1.4
1502539695.7,286047000.2,N,1.4
1502539715.6,286046998.1,N,1.6
1502539735.4,286047000.4,N,1.6
1502539755.2,286047000.5,N,1.5
1502539775.1,286047000.3,N,1.5
1502539776.0,286047000.3,N,1.5
1502539795.8,286047000.4,N,1.4
1502539815.6,286046998.8,N,1.5
1502539835.5,286047001.0,N,1.4
1502539855.3,286047000.3,N,1.4
1502539875.2,286047002.4,N,1.4
1502539895.9,286047000.1,N,1.4
1502539915.7,286047001.0,N,1.4
1502539935.6,286047000.6,N,1.4
1502539955.4,286047000.2,N,1.3
1502539975.3,286047000.1,N,1.3
1502539995.1,286046999.9,N,1.3
1502540015.8,286047000.6,N,1.3
1502540035.7,286047000.3,N,1.2
1502540055.5,286047002.3,N,1.2
1502540075.4,286047002.5,N,1.3
1502540095.2,286047002.8,N,1.3
1502540115.0,286047000.1,N,1.3
1502540115.9,286047000.1,N,1.2
1502540135.8,286047002.4,N,1.2
1502540155.6,286046999.7,N,1.2
1502540175.5,286047002.7,N,1.2
1502540195.3,286047000.4,N,1.1
1502540215.1,286046999.9,N,1.1
1502540235.9,286046999.9,N,1.1
1502540255.7,286047000.0,N,1.1
1502540275.6,286047000.4,N,1.0
1502540295.4,286047002.7,N,1.1
1502540315.2,286047003.2,N,1.1
1502540335.1,286047003.2,N,1.2
1502540336.0,286047003.2,N,1.3
1502540355.8,286047003.1,N,1.3
1502540375.6,286047003.9,N,1.3
1502540395.5,286047004.1,Y,0.0
1502540415.3,286047001.8,P,0.3
1502540435.2,286047002.7,P,0.6
1502540455.0,286047001.9,P,0.5
1502540455.9,286047001.9,Y,0.0
1502540475.8,286047001.0,P,0.5
1502540495.6,286047002.7,P,0.7
1502540515.4,286047002.4,P,0.6
1502540535.3,286047000.4,N,0.9
1502540555.1,286047001.1,N,0.8
1502540575.9,286047001.2,N,0.8
1502540595.7,286046998.1,N,1.3
1502540615.5,286046998.9,N,1.4
1502540635.4,286046998.3,N,1.6
1502540655.2,286046998.4,N,1.6
1502540675.1,286046998.7,N,1.6
1502540676.0,286046998.7,N,1.6
1502540695.8,286047001.1,N,1.6
1502540715.6,286046998.5,N,1.6
1502540735.5,286047002.5,N,1.6
1502540755.3,286047002.4,N,1.7
1502540775.1,286047002.0,N,1.7
1502540795.9,286047002.8,N,1.7
1502540815.7,286047002.8,N,1.7
1502540835.6,286046999.8,N,1.7
1502540855.4,286047002.4,N,1.7
1502540875.2,286047000.1,N,1.7
1502540895.1,286047000.1,N,1.6
1502540896.0,286047000.1,N,1.6
1502540915.8,286047000.7,N,1.6
1502540935.7,286046999.4,N,1.6
1502540955.5,286047001.7,N,1.5
1502540975.3,286047007.4,Y,0.0
1502540995.2,286047003.7,P,1.5
1502541015.0,286047002.2,N,1.2
1502541015.9,286047002.2,N,1.1
1502541035.8,286047000.5,N,1.2
1502541055.6,286046998.2,N,1.7
1502541075.4,286046998.5,N,1.9
1502541095.3,286046998.1,N,2.0
1502541115.1,286046998.3,N,2.0
1502541135.9,286046998.3,N,2.0
1502541155.7,286046998.1,N,2.0
1502541175.5,286047000.3,N,1.9
1502541195.4,286047001.9,N,1.9
1502541215.2,286047000.1,N,1.8
1502541235.0,286047000.6,N,1.8
1502541236.0,286047000.6,N,1.7
1502541255.8,286047000.7,N,1.7
1502541275.6,286047001.0,N,1.6
1502541295.5,286047000.7,N,1.6
1502541315.3,286047000.2,N,1.5
1502541335.1,286047000.1,N,1.5
1502541355.9,286046999.9,N,1.5
1502541375.7,286047001.0,N,1.5
1502541395.6,286047000.4,N,1.4
1502541415.4,286047001.0,N,1.4
1502541435.2,286047002.8,N,1.5
1502541455.1,286047000.3,N,1.4
1502541456.0,286047000.3,N,1.4
1502541475.8,286047000.0,N,1.4
1502541495.7,286047002.7,N,1.4
1502541515.5,286047000.2,N,1.4
1502541535.3,286047002.4,N,1.3
1502541555.2,286047001.6,N,1.3
1502541575.0,286047002.0,N,1.3
1502541575.9,286047002.0,N,1.3
1502541595.8,286047002.7,N,1.3
1502541615.6,286046999.8,N,1.3
1502541635.4,286046999.9,N,1.2
1502541655.3,286046999.9,N,1.1
1502541675.1,286046999.7,N,1.1
1502541695.9,286047002.1,N,1.0
1502541715.7,286047000.2,N,1.0
1502541735.5,286047000.6,N,1.0
1502541755.4,286047000.0,N,1.0
1502541775.2,286046999.9,N,1.0
1502541795.0,286047000.7,N,1.0
1502541796.0,286047000.7,N,1.0
1502541815.8,286046998.1,N,1.1
1502541835.6,286046998.1,N,1.2
1502541855.5,286047001.2,N,1.2
1502541875.3,286046998.9,N,1.2
1502541895.1,286046999.1,N,1.2
1502541915.9,286046998.1,N,1.3
1502541935.7,286046998.7,N,1.4
1502541955.6,286046999.3,N,1.4
1502541975.4,286047001.2,N,1.3
1502541995.2,286046998.4,N,1.4
1502542015.1,286046999.1,N,1.4
1502542016.0,286046999.1,N,1.4
1502542035.8,286046997.0,N,1.4
1502542055.7,286046999.5,N,1.4
1502542075.5,286046997.7,N,1.4
1502542095.3,286046997.2,N,1.4
1502542115.2,286046994.9,Y,0.0
1502542135.0,286046996.7,P,1.5
1502542135.9,286046996.7,N,1.4
1502542155.8,286046997.5,N,1.2
1502542175.6,286046995.3,Y,0.0
1502542195.5,286046996.9,P,0.4
1502542215.3,286046999.4,N,1.0
1502542235.1,286046996.7,P,1.1
1502542255.9,286046996.6,Y,0.0
1502542275.7,286047001.0,P,1.7
1502542295.6,286047000.3,N,1.4
1502542315.4,286047000.6,N,1.3
1502542335.2,286047000.6,N,1.2
1502542355.1,286047002.5,N,1.4
1502542356.0,286047002.5,N,1.5
1502542375.8,286046999.7,N,1.5
1502542395.7,286047000.6,N,1.4
1502542415.5,286047000.9,N,1.3
1502542435.3,286047001.1,N,1.2
1502542455.2,286046998.1,N,1.4
1502542475.0,286047000.6,N,1.3
1502542475.9,286047000.6,N,1.3
1502542495.8,286047000.4,N,1.2
1502542515.6,286047002.3,N,1.3
1502542535.4,286047000.3,N,1.2
1502542555.3,286047000.2,N,1.2
1502542575.1,286047001.9,N,1.2
1502542595.8,286047002.1,N,1.2
1502542615.7,286047002.2,N,1.2
1502542635.5,286046999.8,N,1.2
1502542655.4,286047002.8,N,1.3
1502542675.2,286047000.5,N,1.3
1502542695.0,286047000.2,N,1.2
1502542695.9,286047000.2,N,1.2
1502542715.8,286046999.9,N,1.2
1502542735.6,286047001.0,N,1.2
1502542755.5,286047000.7,N,1.2
1502542775.3,286046998.6,N,1.2
1502542795.1,286046998.4,N,1.1
